Location: Sassari
(40.7270°N, 8.5600°E)
Time: 13:37:20
(UTC+02:00)

ISS - Visible Passes

Search period start: 11 May 2021 00:00
Search period end: 21 May 2021 00:00
Orbit: 417 x 422 km, 51.6° (Epoch: 11 May)

Date Brightness Start Highest point End Pass type
(mag) Time Alt. Az. Time Alt. Az. Time Alt. Az.
11 May -0.5 02:04:21 14° NNE 02:04:21 14° NNE 02:05:14 10° NNE visible
11 May -0.6 03:39:02 10° NNW 03:40:47 13° N 03:42:33 10° NE visible
11 May -1.6 05:15:27 10° NW 05:18:27 28° NNE 05:21:26 10° E visible
12 May -0.5 02:51:26 10° NNW 02:53:05 13° N 02:54:44 10° NNE visible
12 May -1.1 04:28:09 10° NNW 04:30:52 22° NNE 04:33:32 10° ENE visible
13 May -0.5 02:05:02 13° NNW 02:05:22 13° N 02:07:07 10° NNE visible
13 May -0.8 03:40:52 10° NNW 03:43:13 17° NNE 03:45:35 10° ENE visible
13 May -3.3 05:17:10 10° NW 05:20:32 67° NNE 05:23:53 10° ESE visible
14 May -0.4 01:18:39 13° N 01:18:39 13° N 01:19:39 10° NNE visible
14 May -0.5 02:53:32 10° NNW 02:55:34 15° N 02:57:35 10° NE visible
14 May -2.4 04:29:49 10° NW 04:33:03 41° NNE 04:36:17 10° ESE visible
14 May -2.0 21:14:15 10° SSE 21:16:13 15° SE 21:18:11 10° E visible
14 May -3.3 22:49:21 10° WSW 22:52:40 62° NW 22:55:36 13° NE visible
15 May -0.8 00:27:42 10° WNW 00:30:01 17° NNW 00:32:18 10° NNE visible
15 May -0.4 02:06:06 10° NNW 02:07:52 13° N 02:09:37 10° NE visible
15 May -1.7 03:42:31 10° NW 03:45:31 29° NNE 03:48:31 10° E visible
15 May -3.3 05:19:12 10° WNW 05:22:24 40° SW 05:25:35 10° SSE visible
15 May -3.9 22:01:53 10° SW 22:05:14 78° SE 22:08:36 10° NE visible
15 May -1.1 23:39:44 10° WNW 23:42:22 21° NNW 23:45:01 10° NNE visible
16 May -0.4 01:18:30 10° NNW 01:20:09 13° N 01:21:48 10° NNE visible
16 May -1.1 02:55:14 10° NNW 02:57:56 22° NNE 03:00:38 10° ENE visible
16 May -3.9 04:31:40 10° WNW 04:35:02 72° SW 04:38:23 10° SE visible
16 May -3.4 21:14:39 10° SSW 21:17:52 43° SE 21:21:05 10° ENE visible
16 May -1.5 22:51:49 10° W 22:54:46 27° NNW 22:57:43 10° NE visible
17 May -0.4 00:30:43 10° NW 00:32:27 13° N 00:34:10 10° NNE visible
17 May -0.8 02:07:56 10° NNW 02:10:17 17° NNE 02:12:39 10° ENE visible
17 May -3.5 03:44:14 10° NW 03:47:36 67° NE 03:50:58 10° ESE visible
17 May -2.0 05:22:14 10° W 05:24:02 14° SW 05:25:49 10° SSW visible
17 May -2.2 22:04:03 10° W 22:07:13 39° NNW 22:10:25 10° NE visible
17 May -0.5 23:42:47 10° NW 23:44:45 14° N 23:46:42 10° NNE visible
18 May -0.6 01:20:36 10° NNW 01:22:37 15° N 01:22:57 15° NNE visible
18 May -3.2 21:16:24 10° WSW 21:19:43 62° NW 21:23:04 10° NE visible
18 May -0.7 22:54:47 10° WNW 22:57:04 17° NNW 22:59:21 10° NNE visible
19 May -0.5 00:33:10 10° NNW 00:34:55 13° N 00:36:34 10° NE visible
19 May -1.0 22:06:48 10° WNW 22:09:25 21° NNW 22:12:03 10° NNE visible
19 May -0.5 23:45:34 10° NNW 23:47:13 13° N 23:48:51 10° NNE visible
20 May -0.7 01:22:17 10° NNW 01:23:19 16° NNW 01:23:19 16° NNW visible
20 May -1.4 21:18:53 10° W 21:21:49 27° NNW 21:24:46 10° NE visible
20 May -0.6 22:57:47 10° NW 22:59:30 13° N 23:01:13 10° NNE visible
